Lapse_Rate
4.5 4.7 4.9 5.3 6.1 6.6 6.5 6.6 6.4 6.3 6.2 6.2 6.1 5.6 5.5 5.6 6.0 5.8 5.2 6.3 6.4 6.2 6.2 6.3 6.5 6.6 6.8 6.5 6.3 6.1 6.4 6.3 6.7
2.5 2.9 3.2 4.0 4.7 5.3 5.4 5.1 5.9 6.2 6.4 6.4 5.9 5.5 5.7 6.4 6.4 6.2 6.0 6.0 6.3 6.5 6.2 6.4 6.7 6.6 6.7 6.7 6.6 6.3 6.3 6.9 6.9
2.1 2.1 2.3 2.6 3.1 3.2 3.4 3.5 4.1 4.6 5.2 5.4 5.5 5.3 5.3 5.9 6.4 6.0 6.1 5.7 6.5 6.3 6.3 6.4 6.6 6.8 6.7 6.8 6.6 6.6 6.4 6.8 7.3
0.8 1.2 1.7 1.8 2.0 2.3 2.3 2.5 2.7 3.0 3.1 3.7 4.1 4.6 4.9 5.6 5.9 6.4 6.4 5.6 6.3 6.6 6.2 6.3 6.2 6.5 6.3 6.7 6.7 6.6 6.8 7.0 7.3
0.6 0.6 0.9 0.9 1.3 1.4 1.7 1.8 1.5 1.6 2.1 2.2 2.7 3.3 4.7 5.6 5.5 5.8 6.0 5.3 6.3 7.1 6.5 6.2 6.4 6.4 6.7 6.5 6.7 6.5 6.6 6.8 7.1
-1.2 -0.3 0.2 0.4 0.8 1.1 1.2 1.3 1.1 0.7 1.0 1.4 1.7 3.1 4.0 4.7 5.3 5.7 5.2 5.5 6.4 6.9 7.0 6.5 6.5 6.4 6.4 6.6 6.4 6.5 6.6 6.7 6.7
-1.7 -1.4 -1.1 -0.7 -0.9 -0.4 0.0 0.4 0.4 1.0 1.3 1.8 2.2 2.8 3.3 4.3 4.3 4.9 3.8 4.9 6.0 6.5 7.3 7.0 6.4 6.6 6.3 6.4 6.6 6.4 6.5 6.8 6.6
-1.9 -2.2 -2.3 -2.0 -1.7 -1.6 -1.5 -1.1 -0.9 -0.2 0.4 0.6 1.7 2.5 2.9 3.4 3.6 4.2 3.2 3.9 4.8 6.0 6.5 6.8 6.8 6.3 6.5 6.4 6.7 6.4 6.6 6.8 6.7
-2.5 -2.6 -2.4 -2.5 -2.7 -2.2 -2.1 -1.6 -1.0 -0.3 -0.2 0.0 0.5 1.0 2.1 2.7 2.5 3.4 2.4 3.1 4.2 5.0 5.9 6.7 6.8 6.8 6.6 6.7 6.9 6.8 6.8 6.7 6.6
-2.3 -2.5 -2.6 -2.7 -2.5 -2.5 -2.0 -1.7 -1.7 -1.2 -1.1 -0.6 -0.3 0.5 0.9 1.2 2.1 2.8 2.3 2.3 3.3 4.4 5.5 6.3 6.9 7.1 6.9 6.7 6.5 6.7 6.8 6.7 6.5
-2.4 -2.2 -2.4 -2.6 -2.7 -2.6 -2.1 -2.2 -1.7 -1.3 -1.4 -0.9 -0.7 0.2 0.3 0.2 0.6 1.1 1.8 2.0 3.2 4.2 5.1 5.8 6.4 6.8 7.0 7.2 6.9 6.4 6.7 6.7 6.6
-2.3 -2.2 -2.3 -2.7 -2.5 -2.2 -1.9 -1.7 -1.3 -1.2 -1.3 -0.6 -0.1 0.4 0.3 0.3 0.6 1.5 2.1 2.4 2.8 2.7 1.6 2.7 4.7 5.7 6.4 6.9 7.3 7.1 6.5 6.3 6.7
-2.0 -1.9 -2.0 -2.1 -1.7 -1.6 -1.2 -1.8 -0.7 -0.7 -0.8 -0.9 0.1 0.0 -0.0 0.2 1.5 1.6 2.0 1.3 1.2 1.3 0.9 0.6 1.2 1.1 1.8 4.5 6.3 7.2 7.2 6.7 6.3
-1.6 -1.6 -1.6 -1.5 -1.2 -1.0 -0.6 0.0 -0.3 0.0 0.0 0.6 1.4 0.9 0.7 0.5 0.5 1.5 1.9 1.1 0.9 1.4 1.3 0.2 0.5 -0.2 0.5 1.4 2.7 4.0 4.8 6.9 7.1
-0.9 -0.9 -1.0 -0.8 -0.3 -0.3 0.1 0.9 1.0 1.3 1.2 1.7 2.1 1.9 2.0 0.4 1.1 1.7 1.5 1.4 0.8 1.4 1.4 -0.0 0.3 0.1 0.3 0.1 0.5 0.8 1.7 3.0 5.5
-0.7 -0.6 -0.4 -0.3 -0.1 -0.1 0.1 0.9 1.5 1.9 1.2 2.5 2.3 2.3 3.1 2.0 3.4 2.9 2.6 2.1 1.0 1.7 1.2 1.7 0.5 -0.2 0.4 0.1 -0.6 0.9 0.9 1.6 3.1
-0.0 -0.3 -0.0 0.1 0.5 0.6 0.6 0.9 1.8 2.3 2.3 3.0 3.8 5.3 4.1 4.3 3.4 2.9 2.6 2.0 1.3 1.5 1.4 1.6 1.1 1.1 2.0 1.0 0.8 0.8 0.2 0.8 1.8
-0.1 -0.0 0.2 0.5 0.6 1.2 1.5 1.2 1.3 2.0 2.8 2.9 4.5 7.0 7.3 4.8 4.7 4.0 4.0 2.7 2.3 1.8 1.7 1.3 1.4 2.1 1.7 2.5 2.2 1.0 1.2 0.9 1.2
-0.1 -0.1 -0.1 0.2 0.5 1.0 1.5 1.5 1.8 2.1 2.9 3.0 3.7 4.1 5.0 6.7 7.2 6.4 5.4 4.1 3.7 2.8 2.8 2.3 2.5 2.3 2.8 2.3 3.0 2.7 2.3 1.1 2.7
0.2 0.1 -0.1 0.2 0.5 0.8 1.1 1.6 2.1 2.4 2.6 3.2 3.1 3.2 4.2 5.4 7.0 7.8 6.2 4.5 4.6 4.2 3.7 3.6 3.4 3.6 3.5 3.6 3.2 2.7 2.6 3.2 3.2
Wind_Speed
28 28 28 25 19 16 15 13 11 10 9 9 10 10 7 8 7 7 6 6 6 8 10 9 10 12 13 11 12 11 11 15 17
29 29 28 28 26 24 22 21 18 15 10 5 8 10 8 5 6 5 4 5 5 4 7 8 8 10 12 12 10 10 11 12 13
29 28 27 26 26 26 25 23 21 21 20 18 13 11 11 4 5 5 4 4 2 3 2 6 6 7 10 12 10 9 11 10 10
28 30 27 27 27 26 25 24 22 21 21 21 19 15 12 8 6 5 4 5 5 0 1 2 6 5 7 10 10 9 10 9 10
30 28 29 27 28 27 27 25 24 22 22 22 21 17 13 9 6 6 7 9 9 4 3 4 6 7 7 8 11 11 11 11 12
24 27 27 28 28 28 27 27 26 22 21 23 21 16 13 11 9 6 10 11 11 10 7 6 6 8 10 11 12 12 13 12 14
21 23 26 27 26 26 26 27 25 23 19 18 19 15 15 12 11 10 18 15 15 13 9 8 10 10 12 13 13 14 14 16 15
21 20 21 21 24 22 22 23 22 21 19 18 17 16 14 13 13 13 19 20 18 18 15 11 12 13 13 14 16 14 15 16 17
20 19 20 20 20 20 19 17 18 19 20 19 18 17 15 14 13 15 19 21 20 19 19 17 14 14 14 15 17 16 16 17 17
17 18 18 18 18 18 19 18 17 17 19 18 18 17 17 17 15 15 19 19 20 19 19 19 18 16 15 17 17 18 18 18 18
16 16 17 17 18 17 17 17 16 16 18 17 17 16 16 16 17 15 16 18 19 19 20 19 19 20 20 19 18 18 20 20 19
16 16 16 16 16 17 17 18 16 16 17 16 15 15 16 15 16 17 17 19 22 27 31 29 24 22 22 22 22 19 19 22 23
16 16 16 16 16 16 16 16 10 11 11 10 13 14 13 15 16 17 18 21 21 23 29 29 29 32 34 30 24 23 21 21 22
15 15 14 14 14 15 14 12 11 10 11 10 10 12 9 10 15 18 18 22 23 23 25 31 27 31 33 31 30 29 29 25 25
16 15 16 16 15 15 16 10 13 9 10 8 9 7 7 8 15 15 17 19 23 24 24 26 24 28 30 29 32 34 32 31 23
16 14 15 15 14 12 15 9 10 9 13 7 7 5 6 5 13 13 15 19 22 22 24 19 23 24 25 26 30 28 32 31 31
12 11 11 12 10 11 12 10 5 5 9 6 4 6 4 4 7 11 14 17 22 21 23 21 25 21 20 22 25 25 31 32 32
10 10 9 11 11 7 9 10 10 7 5 8 4 4 4 9 4 8 11 12 17 20 18 25 21 23 20 21 20 26 29 31 30
9 11 10 10 10 10 9 10 6 6 6 3 4 2 3 4 6 4 8 12 12 17 19 20 20 20 21 21 19 26 28 30 32
10 11 11 11 11 10 9 8 6 4 3 4 4 4 5 5 4 9 10 10 8 11 19 16 16 20 24 16 22 31 32 32 31
Wind_Direction
54 53 48 48 49 54 54 55 60 69 72 69 60 55 68 70 67 58 44 48 99 111 111 119 118 128 122 117 114 108 102 122 110
53 51 47 44 44 45 46 44 41 40 50 72 56 45 47 67 52 47 59 47 53 109 135 134 134 141 135 132 129 123 114 120 118
53 51 48 45 44 42 41 39 41 42 42 44 37 34 33 48 45 37 21 358 41 69 139 158 158 158 158 147 142 142 137 134 128
52 50 47 45 41 40 36 36 35 35 39 33 26 30 33 35 14 3 5 342 316 167 285 228 185 186 160 159 156 157 151 145 144
49 48 44 44 42 39 36 32 32 33 30 28 21 19 31 19 18 358 349 324 304 260 230 254 209 203 196 182 174 175 174 162 161
44 45 43 41 41 35 35 32 27 25 24 21 18 19 11 6 357 353 346 335 315 297 238 233 244 221 211 210 196 191 193 180 172
47 41 39 36 35 33 28 29 26 26 20 13 13 11 2 0 353 349 346 334 315 310 293 253 243 247 236 223 216 205 206 193 185
42 38 32 29 27 24 21 21 21 18 16 12 9 2 4 357 345 338 345 340 331 324 312 290 267 250 248 244 233 215 217 207 195
43 42 37 34 26 25 23 20 17 15 12 7 3 1 0 353 343 334 341 338 334 331 323 312 284 264 250 252 247 235 220 216 212
44 41 38 35 29 27 23 17 14 13 6 4 358 352 352 346 346 336 334 339 336 335 330 320 312 274 254 248 249 242 232 222 213
49 46 40 36 30 27 25 19 13 10 2 356 354 346 349 347 345 334 338 339 344 344 341 334 324 314 302 270 254 241 238 227 217
50 47 41 33 28 28 26 21 18 12 2 354 348 345 349 351 356 2 1 6 13 20 21 12 359 343 324 311 273 257 240 229 223
50 46 39 29 31 29 26 20 16 11 1 348 342 341 350 359 17 16 15 14 18 13 15 15 13 16 14 2 333 284 263 232 226
54 49 39 33 34 32 24 25 21 13 358 344 334 337 354 19 14 18 25 16 17 10 9 9 13 10 8 6 2 357 351 271 244
49 47 41 35 33 28 22 23 28 19 354 333 326 326 353 44 17 20 17 15 12 6 8 358 3 4 358 4 2 357 354 348 320
41 41 36 33 35 30 24 12 16 18 1 347 344 326 344 45 8 18 14 10 7 4 1 1 360 349 357 2 355 354 358 357 355
47 44 42 37 33 32 29 27 12 21 20 4 324 351 341 334 5 6 9 9 357 360 358 360 350 351 351 352 356 357 355 352 349
44 41 41 37 34 29 24 23 28 7 17 27 8 341 341 329 342 355 357 2 354 352 352 348 350 349 347 348 356 3 355 349 342
38 33 29 31 28 26 17 18 18 6 7 359 20 345 284 328 316 317 337 349 341 342 345 341 344 346 344 342 350 353 350 344 338
27 24 23 19 13 9 6 3 2 -0 336 343 335 322 296 268 273 311 322 328 339 334 332 334 336 338 335 344 344 337 335 334 333